Wind_Speed
8 4 6 8 11 13 14 14 17 18 18 17 15 14 18 17 18 15 14 14 15 16
6 6 7 11 11 11 12 14 18 19 18 16 17 18 19 19 20 18 15 16 16 16
5 8 13 10 10 10 12 16 19 19 18 17 18 21 21 21 20 16 16 17 18 19
4 9 11 10 11 11 14 17 19 19 18 17 18 19 20 21 19 15 16 17 18 20
10 9 11 12 12 13 15 18 20 18 17 16 17 18 20 16 12 13 16 18 18 22
10 12 13 13 13 14 17 19 18 17 17 17 18 19 14 9 10 14 15 15 19 23
13 14 14 14 15 15 18 19 17 17 16 15 14 13 10 9 10 11 14 17 19 19
14 15 15 14 14 16 18 16 16 16 15 15 12 11 9 8 12 15 17 17 17 18
20 15 13 13 15 17 17 16 16 15 15 13 8 15 12 16 16 17 16 16 17 17
16 14 13 14 16 17 16 16 15 14 12 11 9 14 18 18 21 16 14 15 16 17
12 13 14 15 16 16 16 16 15 14 10 8 11 16 18 21 18 14 14 14 15 16
15 15 15 16 16 15 15 14 13 13 11 10 10 17 20 20 16 13 14 14 14 16
15 15 16 16 15 13 13 13 12 13 12 14 14 19 19 18 15 15 14 14 14 17
14 15 16 15 12 13 13 13 13 16 15 15 17 17 19 17 16 13 14 14 14 14
Wind_Direction
329 343 350 338 328 318 314 317 317 315 309 298 278 275 291 290 292 279 273 281 289 295
328 341 336 330 321 318 322 321 320 319 310 300 282 283 284 288 290 284 275 280 285 291
306 328 328 321 313 317 320 323 322 317 310 298 286 285 281 288 286 283 274 277 288 289
302 319 319 309 309 310 319 322 321 318 313 303 292 287 281 285 291 282 272 282 290 292
305 305 302 300 303 307 315 318 318 317 313 310 297 286 280 285 278 273 282 290 290 295
290 293 300 298 297 300 308 313 315 314 309 306 300 303 303 282 279 286 292 292 296 300
287 297 297 294 289 294 303 310 311 307 308 307 308 293 290 284 290 297 298 301 303 302
292 300 292 288 288 296 303 305 304 306 304 304 296 298 299 296 302 304 305 306 305 306
300 297 291 286 291 300 301 301 301 304 292 294 276 302 293 303 309 307 308 308 309 311
297 295 290 288 294 299 298 299 303 290 285 282 268 297 302 309 314 309 308 311 313 314
291 291 290 292 294 297 299 303 300 281 275 267 271 300 306 312 315 312 311 314 316 315
290 290 292 294 294 290 296 298 287 274 273 264 266 301 307 313 313 310 316 318 318 311
291 291 295 295 288 284 291 289 277 270 262 264 277 297 306 313 313 313 317 320 319 318
290 295 299 294 282 284 287 279 274 281 268 268 282 295 304 308 313 315 314 318 319 316
Height
1562 1563 1563 1562 1561 1558 1555 1553 1550 1547 1544 1541 1538 1535 1534 1532 1529 1527 1525 1524 1523 1521
1559 1559 1559 1557 1556 1554 1551 1548 1545 1542 1538 1536 1533 1531 1529 1526 1524 1522 1520 1520 1518 1516
1556 1555 1554 1553 1551 1548 1546 1543 1540 1536 1533 1530 1528 1526 1524 1521 1518 1516 1516 1515 1513 1511
1551 1551 1550 1549 1546 1544 1541 1538 1534 1530 1527 1524 1522 1520 1517 1514 1513 1511 1511 1510 1507 1505
1547 1547 1546 1544 1541 1539 1536 1533 1530 1526 1522 1519 1517 1514 1510 1508 1507 1507 1506 1505 1502 1500
1545 1543 1541 1539 1536 1534 1531 1528 1524 1521 1518 1514 1512 1507 1505 1504 1503 1503 1501 1500 1497 1494
1540 1537 1534 1532 1530 1528 1525 1522 1519 1517 1513 1510 1507 1505 1502 1501 1500 1499 1497 1494 1491 1487
1533 1530 1528 1525 1524 1522 1519 1516 1514 1511 1509 1506 1503 1500 1498 1499 1497 1495 1492 1489 1485 1481
1527 1525 1523 1521 1519 1517 1514 1511 1508 1506 1504 1502 1499 1495 1495 1494 1492 1490 1487 1483 1480 1476
1521 1519 1518 1516 1514 1512 1509 1506 1503 1500 1498 1498 1495 1492 1491 1490 1487 1484 1481 1478 1474 1471
1516 1514 1513 1511 1509 1506 1504 1501 1500 1499 1494 1492 1490 1488 1487 1485 1482 1479 1477 1473 1470 1467
1510 1508 1507 1504 1502 1500 1498 1495 1495 1495 1491 1488 1486 1484 1482 1480 1477 1475 1472 1469 1466 1462
1505 1503 1500 1497 1495 1494 1492 1490 1489 1489 1487 1483 1482 1479 1477 1475 1473 1470 1468 1466 1462 1458
1500 1497 1494 1491 1490 1489 1486 1485 1484 1482 1481 1479 1477 1475 1473 1471 1469 1467 1464 1462 1459 1456